Wooster, OH

2:21 AM EDT on June 24, 2018 (GMT -0400)
Wayne County

Weather History for KBJJ - April, 2011

Change the Weather History Date:

Sunday, April 17, 2011

  Actual Average Record
Temperature  
Mean Temperature 46 °F -  
Max Temperature 57 °F 58 °F 81 °F (2002)
Min Temperature 37 °F 38 °F 27 °F (2001)
Degree Days  
Heating Degree Days 19    
Moisture  
Dew Point 31 °F    
Average Humidity 61    
Maximum Humidity 81    
Minimum Humidity 32    
Precipitation  
Precipitation 0.00 in - - ()
Sea Level Pressure  
Sea Level Pressure 29.76 in    
Wind  
Wind Speed 19 mph (West)    
Max Wind Speed 33 mph    
Max Gust Speed 45 mph    
Visibility 10 miles    
Events      
Averages and records for this station are not official NWS values.
T = Trace of Precipitation, MM = Missing Value Source: NWS Daily Summary

Daily Weather History Graph

Daily Weather History Graph

Search for Another Location

Airport or City:

Astronomy

Apr. 17, 2011 Rise Set
Actual Time 6:45 AM EDT 8:09 PM EDT
Civil Twilight 6:17 AM EDT 8:37 PM EDT
Nautical Twilight 5:43 AM EDT 9:12 PM EDT
Astronomical Twilight 5:06 AM EDT 9:48 PM EDT
Moon 8:06 PM EDT (4/17) 6:02 AM EDT (4/17)
Length of Visible Light 14h 20m
Length of Day
13h 23m
Full, 100% of the Moon is Illuminated
Apr 17
Full
Apr 17
Full
Apr 24
Last Quarter
May 3
New
May 10
First Quarter

Hourly Weather History & Observations

Time (EDT) Temp. Windchill Dew Point Humidity Pressure Visibility Wind Dir Wind Speed Gust Speed Precip Events Conditions
12:56 AM 39.0 °F 29.3 °F 30.9 °F 73% 29.70 in 10.0 mi West 19.6 mph 29.9 mph N/A   Overcast
2:30 AM 37.4 °F 26.1 °F 32.0 °F 81% 29.71 in 10.0 mi West 24.2 mph 33.4 mph 0.00 in   Overcast
2:56 AM 37.9 °F 28.5 °F 28.9 °F 70% 29.73 in 10.0 mi West 17.3 mph 25.3 mph 0.00 in   Overcast
3:56 AM 37.9 °F 29.6 °F 28.9 °F 70% 29.75 in 10.0 mi West 13.8 mph - N/A   Overcast
4:56 AM 37.9 °F 28.5 °F 30.0 °F 73% 29.75 in 10.0 mi WSW 17.3 mph 25.3 mph N/A   Overcast
5:56 AM 39.0 °F 29.6 °F 28.0 °F 65% 29.77 in 10.0 mi West 18.4 mph 26.5 mph N/A   Overcast
6:56 AM 39.0 °F 31.8 °F 30.0 °F 70% 29.77 in 10.0 mi WSW 11.5 mph - N/A   Overcast
7:03 AM 39.2 °F 32.0 °F 30.2 °F 70% 29.75 in 10.0 mi WSW 11.5 mph - N/A   Overcast
7:26 AM 39.2 °F 31.2 °F 30.2 °F 70% 29.75 in 10.0 mi SW 13.8 mph - N/A   Overcast
7:56 AM 39.9 °F 31.8 °F 33.1 °F 77% 29.76 in 10.0 mi SW 15.0 mph - N/A   Overcast
8:54 AM 42.8 °F 34.8 °F 33.8 °F 70% 29.74 in 10.0 mi WSW 17.3 mph 25.3 mph N/A   Overcast
8:56 AM 42.1 °F 33.9 °F 34.0 °F 73% 29.76 in 10.0 mi WSW 17.3 mph 25.3 mph N/A   Overcast
9:05 AM 42.8 °F 34.5 °F 33.8 °F 70% 29.74 in 10.0 mi WSW 18.4 mph 24.2 mph N/A   Overcast
9:40 AM 42.8 °F 34.3 °F 35.6 °F 76% 29.74 in 10.0 mi WSW 19.6 mph 31.1 mph N/A   Overcast
9:56 AM 44.1 °F 35.4 °F 36.0 °F 73% 29.75 in 10.0 mi WSW 21.9 mph 32.2 mph N/A   Overcast
10:56 AM 46.0 °F 38.5 °F 37.0 °F 71% 29.75 in 10.0 mi WSW 19.6 mph 29.9 mph N/A   Overcast
11:34 AM 48.2 °F - 37.4 °F 66% 29.72 in 10.0 mi West 20.7 mph 33.4 mph N/A   Overcast
11:42 AM 48.2 °F - 35.6 °F 62% 29.72 in 10.0 mi WSW 23.0 mph 34.5 mph N/A   Overcast
11:56 AM 48.9 °F - 36.0 °F 61% 29.73 in 10.0 mi WSW 19.6 mph 38.0 mph N/A   Mostly Cloudy
12:56 PM 52.0 °F - 35.1 °F 53% 29.72 in 10.0 mi West 27.6 mph 43.7 mph N/A   Scattered Clouds
1:56 PM 54.0 °F - 30.9 °F 41% 29.72 in 10.0 mi West 29.9 mph 44.9 mph N/A   Partly Cloudy
2:56 PM 55.0 °F - 28.0 °F 35% 29.71 in 10.0 mi West 33.4 mph 44.9 mph N/A   Clear
4:56 PM 55.9 °F - 26.1 °F 32% 29.71 in 10.0 mi West 31.1 mph 40.3 mph N/A   Clear
5:56 PM 55.9 °F - 26.1 °F 32% 29.73 in 10.0 mi West 21.9 mph 36.8 mph N/A   Clear
6:56 PM 53.1 °F - 25.0 °F 34% 29.76 in 10.0 mi West 20.7 mph 34.5 mph N/A   Overcast
7:56 PM 52.0 °F - 27.0 °F 38% 29.77 in 10.0 mi West 15.0 mph 25.3 mph N/A   Mostly Cloudy
8:56 PM 50.0 °F - 30.0 °F 46% 29.82 in 10.0 mi West 11.5 mph - N/A   Overcast
9:56 PM 46.9 °F - 30.9 °F 54% 29.86 in 10.0 mi NW 9.2 mph - N/A   Clear
10:56 PM 45.0 °F 40.6 °F 30.0 °F 56% 29.89 in 10.0 mi NW 8.1 mph - N/A   Scattered Clouds
11:56 PM 41.0 °F 38.0 °F 30.0 °F 65% 29.92 in 10.0 mi NW 4.6 mph - N/A   Scattered Clouds